Theta_e
311 310 311 310 309 311 311 311 311 308 306 307 307 308 309 309 307 304 304 303 304 306 305 302 300 298 296 295 295 294 294 293 293 293 293 293 293 293 293 293 292 292 291 291
309 311 309 309 307 309 308 309 308 306 305 305 305 307 308 307 308 309 305 303 304 303 302 302 299 296 295 295 295 294 293 292 292 292 292 293 293 294 293 292 291 291 291 291
309 310 307 309 308 308 307 307 308 309 304 303 302 305 303 304 305 306 306 306 306 306 304 302 299 296 295 294 294 293 292 291 291 291 291 291 292 292 292 291 291 291 291 291
308 308 309 308 309 307 310 305 307 307 306 308 303 311 306 306 306 304 306 306 308 307 304 302 300 297 295 294 294 292 291 291 291 291 290 290 291 291 290 289 289 289 290 290
310 306 307 308 309 306 309 304 304 304 304 302 303 304 307 300 304 307 305 308 309 309 306 304 301 300 297 294 293 292 291 290 290 290 290 290 290 289 289 289 289 289 289 289
307 306 305 308 303 305 302 304 301 298 300 305 307 307 306 304 305 305 304 308 309 308 307 305 301 298 297 294 293 292 291 290 290 290 289 289 289 289 289 288 288 288 289 289
309 306 304 305 307 305 304 307 310 309 306 311 299 302 308 305 302 304 306 307 307 306 306 304 302 298 296 294 293 292 291 290 290 289 289 289 289 289 288 288 287 288 288 288
311 312 304 303 308 309 304 307 311 309 307 309 297 305 309 302 305 304 305 305 306 307 306 305 304 301 298 295 293 292 290 289 289 289 289 289 288 288 288 287 287 287 287 287
310 311 303 303 303 305 304 306 305 304 289 303 308 306 305 303 302 299 299 300 304 307 307 305 302 302 299 296 294 292 290 289 289 289 289 288 288 287 287 287 287 287 287 286
311 313 304 300 302 299 303 301 306 305 309 305 308 309 310 306 306 303 301 299 306 307 307 305 304 302 299 297 294 291 290 289 289 289 289 288 287 287 287 287 287 287 287 287
308 312 307 302 303 303 301 303 302 304 305 307 306 310 305 306 305 305 304 305 308 309 308 308 306 303 299 296 293 291 289 289 288 288 288 287 287 287 287 286 286 286 286 286
307 310 313 304 300 299 301 304 305 308 307 302 304 310 305 307 304 303 305 307 308 307 307 307 304 301 300 296 292 290 288 288 288 288 288 287 287 286 286 286 286 286 286 285
306 309 311 312 303 300 302 301 302 302 302 309 307 310 306 303 303 304 303 304 306 307 306 305 302 301 299 295 292 289 288 288 288 288 287 287 286 286 286 287 286 286 285 284
309 309 312 311 309 304 303 300 302 304 309 309 308 309 309 309 307 304 305 306 305 305 305 303 300 299 296 293 291 289 288 287 288 287 287 286 286 286 287 286 285 284 283 281
307 312 311 311 310 305 304 305 304 304 306 308 309 308 308 309 308 308 308 308 307 307 306 305 301 299 294 292 290 288 287 287 287 287 286 286 286 286 286 285 284 282 281 281
303 310 309 312 310 306 307 306 308 306 306 304 305 306 308 308 308 307 308 308 307 306 305 305 303 297 294 292 290 288 287 287 287 286 286 286 286 286 285 284 283 282 281 280
304 307 309 312 310 305 307 309 310 309 308 308 308 307 307 306 306 306 306 307 306 306 306 305 304 301 296 292 289 288 287 287 286 286 286 286 286 285 284 283 282 281 280 280
309 307 309 311 308 311 310 307 307 307 307 306 307 308 308 308 308 308 307 307 306 307 307 305 303 298 293 290 288 288 287 287 286 286 286 286 285 284 283 282 280 279 279 279
308 309 310 311 312 310 309 306 304 306 307 307 307 306 307 307 306 305 307 307 308 307 306 304 303 298 294 289 288 287 287 286 286 286 286 285 284 283 282 280 278 278 278 279
308 308 309 311 311 312 309 308 305 301 307 307 307 307 307 304 305 307 307 307 308 308 303 301 299 296 291 288 287 287 286 286 286 286 286 285 283 283 280 278 277 277 277 278
305 308 310 310 312 311 308 303 302 307 309 308 307 306 306 304 306 308 306 306 305 303 301 299 295 293 289 287 287 286 286 286 286 286 285 283 282 281 278 277 276 276 276 277
310 309 310 311 311 312 307 303 306 309 309 309 309 307 306 307 307 306 307 305 302 302 297 294 292 289 287 287 287 286 286 286 285 285 284 282 280 278 277 276 275 276 276 277
312 310 312 310 310 306 308 308 308 308 308 309 309 309 307 306 306 307 307 302 299 297 294 292 290 288 286 286 286 287 286 286 285 285 282 280 278 277 276 276 275 275 275 275
310 309 310 310 310 306 304 308 309 309 307 308 308 308 307 305 305 305 303 299 297 296 291 288 288 286 285 285 286 286 286 285 285 283 280 279 277 276 275 274 274 274 274 273
310 309 310 310 309 309 309 309 308 308 308 308 308 308 307 304 305 305 302 299 297 295 291 287 287 286 285 286 285 285 285 284 283 280 279 277 276 275 274 273 272 273 273 269
306 307 309 310 310 309 310 310 310 309 309 309 309 307 308 306 304 302 302 298 294 292 289 285 285 285 285 285 285 284 284 282 280 279 277 276 275 275 274 273 272 272 273 273
Wind_Speed
2 2 9 12 8 3 3 4 7 5 4 4 10 15 20 30 24 26 32 32 35 41 39 40 39 38 35 32 29 25 22 19 17 14 11 9 8 9 12 15 17 20 22 25
3 11 9 5 4 5 4 4 7 7 2 6 9 17 18 20 24 31 30 30 35 34 37 39 42 40 39 35 30 28 24 21 18 15 13 11 10 12 14 16 18 20 22 26
8 3 7 7 4 6 5 6 5 8 5 3 7 10 8 6 11 26 28 31 28 31 33 36 45 47 43 39 34 29 25 22 19 16 14 12 12 13 16 17 18 20 23 27
7 3 7 4 6 8 4 6 2 3 3 4 4 13 3 6 11 8 20 22 26 27 28 31 39 49 47 42 34 30 27 25 21 17 15 14 14 16 18 21 22 23 25 27
8 8 5 5 8 9 6 4 4 1 3 3 4 5 4 3 8 16 8 20 23 23 24 27 32 41 49 42 37 32 29 25 21 17 15 14 15 17 20 23 25 26 27 29
6 0 6 7 3 2 6 4 4 3 2 2 8 10 5 6 9 8 7 17 14 14 17 22 26 31 46 44 40 36 31 27 22 18 15 15 16 19 22 25 27 29 31 33
0 5 3 4 5 3 3 5 4 5 2 8 5 3 15 7 10 12 10 16 13 13 17 21 26 33 40 49 45 40 34 29 23 17 17 16 17 20 23 25 28 31 34 35
6 11 9 6 8 8 7 9 6 9 4 16 2 8 9 16 19 15 21 22 18 17 18 20 23 27 35 48 48 42 35 29 22 18 17 16 17 19 22 25 28 32 36 38
8 9 2 3 3 4 5 6 2 4 2 3 6 13 7 8 10 7 19 18 21 18 19 23 23 26 33 44 50 44 36 29 25 20 15 15 17 19 23 25 29 33 36 40
6 5 3 3 3 1 5 5 4 2 3 6 12 22 18 10 15 11 11 22 26 18 19 21 22 26 32 38 49 43 36 31 24 18 15 14 17 20 23 26 29 34 37 41
6 6 3 4 10 13 4 4 3 2 4 6 7 17 5 7 10 11 14 24 21 14 19 20 22 24 31 38 48 45 37 30 22 18 14 15 17 20 23 27 31 36 40 42
8 5 9 13 1 0 3 12 13 6 8 5 2 25 1 2 9 9 10 15 18 17 18 21 25 27 33 38 49 45 37 29 23 18 15 16 17 20 23 28 33 37 41 42
9 4 2 8 2 3 7 7 8 2 1 23 7 23 5 10 9 16 13 18 20 21 24 30 29 33 37 42 49 44 37 29 23 18 16 15 18 21 25 30 34 37 39 39
19 7 11 21 17 6 6 8 18 21 17 16 26 35 37 34 20 12 16 26 31 31 34 33 33 35 37 45 49 43 35 27 22 17 14 15 18 22 26 31 34 36 37 38
8 13 16 23 26 6 5 7 21 23 30 19 30 20 38 34 20 25 32 38 35 29 31 33 35 36 39 43 46 40 33 26 20 16 13 15 18 23 28 31 33 34 35 36
1 13 10 27 26 9 12 18 29 24 33 15 20 32 45 29 32 30 41 39 39 38 43 39 33 34 38 42 48 41 33 26 19 15 13 14 18 23 27 29 32 33 34 35
8 7 9 24 22 4 2 36 30 33 34 21 27 39 31 28 26 28 41 42 42 41 40 33 33 34 36 42 49 41 32 24 18 13 12 14 19 23 26 28 30 31 32 34
20 16 13 18 8 19 22 18 24 32 27 18 28 32 29 28 41 45 33 45 40 45 43 35 28 30 34 39 46 38 31 23 16 12 11 14 19 22 25 27 28 29 31 33
26 20 10 9 15 19 13 14 13 17 24 33 23 28 31 34 23 37 38 49 48 48 41 32 29 32 36 41 45 36 28 20 15 10 10 14 18 21 24 25 26 27 30 33
28 26 18 13 9 15 22 35 16 5 17 39 25 32 30 8 9 21 33 23 21 27 26 26 30 32 34 46 42 34 26 19 13 8 10 14 17 20 22 24 26 26 28 32
6 12 24 24 20 13 13 8 13 7 25 33 19 28 24 15 23 39 26 21 18 22 24 26 31 35 43 46 39 31 24 18 11 7 10 13 15 18 21 22 25 27 27 30
19 10 9 13 15 21 18 11 20 31 43 38 36 28 23 36 41 39 39 31 25 25 27 29 36 41 48 44 38 30 23 15 8 8 10 11 14 16 19 21 23 25 27 31
18 20 21 17 10 7 21 25 52 54 43 41 38 29 34 37 43 42 42 37 30 26 30 33 39 49 48 42 36 31 24 17 10 8 8 9 11 14 17 18 21 23 26 30
17 22 19 24 23 12 18 37 45 50 50 60 45 39 34 38 41 42 40 37 33 32 34 39 48 51 48 41 35 27 21 16 12 8 5 6 8 10 13 16 19 22 26 29
5 2 16 22 24 28 36 41 45 45 42 42 46 41 44 41 44 43 41 40 41 38 39 46 51 50 45 39 31 26 20 16 10 6 4 4 7 9 11 14 18 20 21 22
16 20 19 23 23 20 26 38 45 47 45 49 51 47 57 51 48 47 42 44 47 44 46 53 53 48 42 36 32 24 19 13 8 5 3 1 5 9 10 10 10 15 19 21
Wind_Direction
138 117 214 211 201 174 169 199 234 250 239 226 248 254 262 276 258 260 257 247 246 243 240 231 227 226 224 225 227 229 231 231 231 233 241 256 279 299 310 318 315 315 317 320
59 229 204 134 152 154 167 207 259 283 238 194 272 263 265 259 263 263 259 251 256 252 241 233 225 223 226 229 228 227 229 231 230 233 241 257 279 297 314 317 313 313 317 318
171 232 115 133 147 164 204 192 228 238 335 253 302 267 236 284 252 267 255 258 259 252 246 236 224 223 225 225 225 227 230 232 233 237 246 262 281 297 307 308 314 315 317 315
228 217 152 162 209 151 226 209 209 285 13 259 21 294 235 243 280 258 258 245 249 248 245 242 231 224 224 225 226 227 228 230 233 238 249 266 285 299 309 315 319 318 316 313
238 164 165 187 216 162 224 125 143 136 216 7 237 264 217 7 273 266 258 252 247 253 250 248 241 234 229 225 223 227 230 231 234 243 255 273 290 301 313 314 314 315 317 314
255 303 171 198 79 147 135 96 69 64 103 263 225 201 169 184 212 257 258 256 243 247 256 253 249 238 229 224 223 225 228 231 238 250 263 277 294 305 310 312 317 319 320 313
243 212 175 170 101 28 103 71 325 315 343 247 136 229 258 234 229 220 227 236 247 267 252 242 237 231 227 221 223 224 225 229 235 247 267 283 295 304 310 318 319 319 314 314
184 266 179 185 197 179 173 168 170 241 238 288 72 244 273 220 238 221 242 258 254 242 245 242 240 239 233 222 223 225 225 227 237 248 262 281 294 305 313 314 315 317 316 317
182 267 117 203 150 148 182 191 172 96 138 314 242 263 283 227 250 236 239 236 243 243 245 246 238 239 235 225 225 225 225 227 236 248 264 279 296 304 309 314 316 316 316 317
221 274 188 137 124 62 174 161 85 2 248 251 268 273 271 219 233 228 241 228 243 237 245 241 239 244 238 230 223 224 224 228 235 246 262 279 293 302 310 313 314 313 314 315
158 180 217 130 205 174 143 199 198 170 164 198 268 269 205 207 201 208 231 233 222 234 244 237 250 252 237 228 220 222 221 225 234 244 258 277 290 302 309 312 313 315 316 314
210 171 225 220 314 122 198 197 180 201 227 242 203 268 51 314 190 204 223 224 210 253 248 249 246 239 231 224 220 218 217 222 231 241 258 276 292 302 309 314 316 319 314 312
175 221 265 261 342 356 215 196 214 247 231 233 193 257 174 236 227 215 229 240 249 251 255 262 246 237 230 221 217 213 214 220 229 240 256 276 293 305 313 316 317 315 314 314
171 170 209 237 248 131 193 200 214 216 235 234 231 255 274 260 267 257 263 274 265 266 267 258 244 238 228 221 214 211 213 217 227 241 257 280 298 310 316 318 319 320 321 321
166 242 240 251 259 221 205 230 226 222 229 223 252 246 257 269 268 270 272 271 272 267 263 259 247 237 226 220 210 210 212 216 225 240 263 288 303 312 318 323 324 326 324 323
191 248 267 253 258 249 244 254 256 253 252 238 256 262 256 279 284 285 277 276 276 273 271 268 253 237 229 219 209 206 210 216 221 239 266 288 305 317 323 326 328 327 325 324
200 233 242 254 259 221 259 244 260 263 268 263 256 253 272 265 266 260 266 271 270 270 268 264 247 240 232 219 207 204 206 212 222 242 269 297 313 321 326 328 327 325 325 324
233 232 239 251 235 237 245 262 257 257 264 253 253 261 263 261 262 264 261 263 267 269 273 264 246 233 222 214 201 201 203 207 218 238 272 304 318 324 326 326 326 326 326 326
219 227 241 240 232 252 307 253 211 237 258 258 257 261 259 263 270 273 259 262 269 275 274 265 244 225 217 202 195 196 199 203 213 240 284 311 319 323 323 323 324 328 326 327
234 222 215 214 231 233 234 249 222 91 274 262 234 254 262 249 261 272 278 272 257 257 249 237 223 215 204 191 191 193 196 202 213 244 294 311 315 319 321 325 326 328 328 330
178 212 224 228 236 235 227 221 124 182 249 260 241 232 245 227 229 250 256 257 254 241 231 223 214 202 192 186 187 188 194 201 216 259 297 307 314 320 322 326 329 329 331 334
226 199 211 230 240 249 218 175 208 230 244 254 261 237 218 232 242 241 254 260 241 224 213 208 200 191 184 184 183 187 192 199 219 271 296 307 315 321 324 330 331 330 337 341
231 215 224 204 216 213 199 215 222 235 243 258 257 253 237 237 243 244 246 244 234 223 209 200 198 184 182 183 184 187 189 194 215 255 287 300 316 318 322 329 332 337 344 350
220 238 243 254 254 238 225 223 232 231 234 245 258 259 260 238 240 244 240 231 223 218 209 198 188 185 182 182 184 186 190 197 211 225 257 284 304 319 331 338 339 345 353 357
244 332 253 260 262 261 256 245 242 245 244 251 258 258 255 249 246 243 237 230 221 208 206 196 188 188 184 180 182 185 190 200 207 206 221 282 320 341 350 351 347 354 2 356
255 253 250 253 255 249 260 260 260 255 257 257 259 257 259 253 246 245 240 235 217 204 195 192 188 188 184 180 179 185 190 196 199 202 208 309 347 351 355 5 14 3 2 0